CPA270 EHAM-VHHH

Flight info

Callsign CPA270
Flight time N/A
Altitude 33000
Route ARNEM2V ARNEM L620 HMM DCT NOMKA DCT OMELO DCT ODLIV DCT OMIFU DCT SAGAN DCT ETNOG DCT ROMAG DCT UDROS/N0490F350 UM859 KARDE UL851 TBN UM11 REBLO M11 LUSAL N199 RASAM L88 METKA B476 DARVA/K0909F350 T898 SUDAR/K0898F370 T898 OGOLI N193 SR L163 TISIB L141 KAMUD/K0896S1130 W186 SADAN Y1 NUPNI/K0896S1190 Y1 OMBON W245 OVRAL B330 KWE W181 DUDIT A599 POU R473 SIERA SIERA7A
Aircraft A35K/H-SDE2E3GHIJ3J4J5LM1ORWXY/LB1D1

Departure

Time 2026-05-05 22:06
Airport Amsterdam Airport Schiphol (EHAM)

Arrival

Time N/A
Airport Hong Kong International Airport (VHHH)
Time Latitude Longitude Altitude Speed Heading
2026-05-05 21:54 52.31340 4.75358 5 ft 4 kts 275°
2026-05-05 21:54 52.31335 4.75401 5 ft 4 kts 291°
2026-05-05 21:54 52.31322 4.75438 7 ft 4 kts 320°
2026-05-05 21:54 52.31304 4.75453 7 ft 1 kts 357°
2026-05-05 21:58 52.31305 4.75453 7 ft 1 kts 357°
2026-05-05 21:58 52.31315 4.75452 8 ft 3 kts 356°
2026-05-05 21:58 52.31353 4.75449 6 ft 8 kts 359°
2026-05-05 21:58 52.31413 4.75409 5 ft 10 kts 311°
2026-05-05 21:59 52.31339 4.75335 5 ft 1 kts 271°
2026-05-05 21:59 52.31375 4.75340 5 ft 13 kts 43°
2026-05-05 21:59 52.31425 4.75409 5 ft 8 kts 34°
2026-05-05 21:59 52.31477 4.75430 5 ft 7 kts 349°
2026-05-05 22:00 52.31496 4.75402 5 ft 4 kts 295°
2026-05-05 22:00 52.31506 4.75317 4 ft 7 kts 274°
2026-05-05 22:00 52.31505 4.75221 4 ft 9 kts 268°
2026-05-05 22:00 52.31500 4.75103 5 ft 11 kts 266°
2026-05-05 22:01 52.31495 4.74964 5 ft 13 kts 266°
2026-05-05 22:01 52.31488 4.74803 5 ft 15 kts 266°
2026-05-05 22:01 52.31481 4.74625 5 ft 16 kts 269°
2026-05-05 22:01 52.31480 4.74431 5 ft 18 kts 267°
2026-05-05 22:02 52.31460 4.74235 5 ft 17 kts 241°
2026-05-05 22:02 52.31358 4.74134 5 ft 18 kts 187°
2026-05-05 22:02 52.31228 4.74125 5 ft 20 kts 182°
2026-05-05 22:02 52.31086 4.74111 5 ft 21 kts 184°
2026-05-05 22:03 52.30988 4.74102 5 ft 22 kts 183°
2026-05-05 22:03 52.30774 4.74081 5 ft 24 kts 184°
2026-05-05 22:03 52.30606 4.74066 5 ft 25 kts 182°
2026-05-05 22:03 52.30432 4.74054 5 ft 23 kts 185°
2026-05-05 22:04 52.30280 4.73977 5 ft 21 kts 207°
2026-05-05 22:04 52.30205 4.73877 4 ft 12 kts 242°
2026-05-05 22:04 52.30219 4.73759 3 ft 11 kts 327°
2026-05-05 22:04 52.30291 4.73748 2 ft 7 kts
2026-05-05 22:05 52.30357 4.73752 2 ft 17 kts
2026-05-05 22:05 52.30680 4.73783 4 ft 80 kts
2026-05-05 22:05 52.31455 4.73857 3 ft 141 kts
2026-05-05 22:05 52.32566 4.73954 352 ft 164 kts
2026-05-05 22:06 52.33317 4.73988 890 ft 161 kts
2026-05-05 22:06 52.34198 4.73991 1461 ft 166 kts
2026-05-05 22:06 52.35039 4.74226 1729 ft 172 kts 22°
2026-05-05 22:06 52.36147 4.75162 1992 ft 188 kts 30°
2026-05-05 22:07 52.37352 4.76265 2188 ft 210 kts 31°
2026-05-05 22:07 52.38154 4.77250 2341 ft 223 kts 42°
2026-05-05 22:07 52.39260 4.79108 2848 ft 232 kts 46°
2026-05-05 22:07 52.40367 4.81065 3437 ft 236 kts 46°
2026-05-05 22:08 52.41473 4.83103 3994 ft 243 kts 51°
2026-05-05 22:08 52.42246 4.85591 4491 ft 252 kts 73°
2026-05-05 22:08 52.42437 4.88465 5129 ft 256 kts 86°
2026-05-05 22:08 52.42441 4.91415 5714 ft 261 kts 88°
2026-05-05 22:09 52.42429 4.94410 6347 ft 265 kts 89°
2026-05-05 22:09 52.42175 4.97439 6893 ft 272 kts 107°
2026-05-05 22:09 52.41227 5.00123 7503 ft 277 kts 133°
2026-05-05 22:09 52.39732 5.02148 8155 ft 282 kts 143°
2026-05-05 22:10 52.38106 5.03990 8794 ft 285 kts 144°
2026-05-05 22:10 52.36464 5.05836 9460 ft 288 kts 144°
2026-05-05 22:10 52.34815 5.07729 10097 ft 292 kts 143°
2026-05-05 22:10 52.33355 5.10140 10406 ft 307 kts 121°
2026-05-05 22:11 52.32414 5.13361 10695 ft 322 kts 111°
2026-05-05 22:11 52.31599 5.16870 10979 ft 338 kts 110°
2026-05-05 22:11 52.30753 5.20543 11280 ft 353 kts 110°
2026-05-05 22:11 52.29857 5.24378 11545 ft 368 kts 110°
2026-05-05 22:12 52.29286 5.26799 11734 ft 377 kts 110°
2026-05-05 22:12 52.28358 5.30707 12080 ft 388 kts 111°
2026-05-05 22:12 52.27371 5.34846 12599 ft 394 kts 111°
2026-05-05 22:12 52.26368 5.39036 13157 ft 399 kts 111°
2026-05-05 22:13 52.25351 5.43275 13718 ft 403 kts 111°
2026-05-05 22:13 52.24326 5.47536 14377 ft 403 kts 111°
2026-05-05 22:13 52.23298 5.51800 15018 ft 404 kts 111°
2026-05-05 22:13 52.22280 5.56031 15604 ft 406 kts 111°
2026-05-05 22:14 52.21239 5.60333 16195 ft 409 kts 111°
2026-05-05 22:14 52.20187 5.64665 16737 ft 412 kts 111°
2026-05-05 22:14 52.19129 5.69015 17324 ft 414 kts 111°
2026-05-05 22:14 52.18063 5.73387 17925 ft 416 kts 111°
2026-05-05 22:15 52.16995 5.77765 18488 ft 418 kts 112°
2026-05-05 22:15 52.15910 5.82199 18903 ft 424 kts 112°
2026-05-05 22:15 52.14811 5.86686 19391 ft 426 kts 112°
2026-05-05 22:15 52.13709 5.91177 19923 ft 429 kts 113°
2026-05-05 22:16 52.12593 5.95716 20348 ft 435 kts 114°
2026-05-05 22:16 52.11461 6.00302 20796 ft 440 kts 113°
2026-05-05 22:16 52.10325 6.04949 21333 ft 443 kts 112°
2026-05-05 22:16 52.09427 6.09765 21876 ft 447 kts 105°
2026-05-05 22:17 52.08774 6.14743 22375 ft 452 kts 102°
2026-05-05 22:17 52.08233 6.19796 22878 ft 455 kts 101°
2026-05-05 22:17 52.07738 6.24904 23385 ft 459 kts 101°
2026-05-05 22:17 52.07254 6.29979 23812 ft 462 kts 101°
2026-05-05 22:18 52.06750 6.35147 24259 ft 464 kts 101°
2026-05-05 22:18 52.06228 6.40339 24737 ft 465 kts 101°
2026-05-05 22:18 52.05693 6.45504 25295 ft 464 kts 102°
2026-05-05 22:18 52.05146 6.50691 25749 ft 466 kts 102°
2026-05-05 22:19 52.04590 6.55889 26184 ft 468 kts 102°
2026-05-05 22:19 52.04026 6.61116 26637 ft 470 kts 102°
2026-05-05 22:19 52.03457 6.66365 27073 ft 472 kts 102°
2026-05-05 22:19 52.02886 6.71625 27495 ft 474 kts 103°
2026-05-05 22:20 52.02310 6.76908 27905 ft 476 kts 103°
2026-05-05 22:20 52.01657 6.82181 28314 ft 477 kts 106°
2026-05-05 22:20 52.00851 6.87410 28651 ft 478 kts 108°
2026-05-05 22:20 51.99976 6.92634 29039 ft 479 kts 108°
2026-05-05 22:21 51.99091 6.97829 29617 ft 476 kts 108°
2026-05-05 22:21 51.98221 7.02994 30161 ft 473 kts 108°
2026-05-05 22:21 51.97371 7.08150 30595 ft 472 kts 108°
2026-05-05 22:21 51.96527 7.13280 30987 ft 470 kts 109°
2026-05-05 22:22 51.95625 7.18375 31380 ft 468 kts 110°
2026-05-05 22:22 51.94680 7.23418 31753 ft 467 kts 110°
2026-05-05 22:22 51.93720 7.28436 32127 ft 465 kts 111°
2026-05-05 22:22 51.92762 7.33437 32498 ft 464 kts 111°
2026-05-05 22:23 51.91812 7.38423 32789 ft 464 kts 111°
2026-05-05 22:23 51.89929 7.48377 32842 ft 466 kts 111°
2026-05-05 22:24 51.88033 7.58432 32845 ft 467 kts 111°
2026-05-05 22:24 51.86130 7.68496 32836 ft 467 kts 111°
2026-05-05 22:25 51.84402 7.78648 32835 ft 470 kts 107°
2026-05-05 22:25 51.83101 7.89026 32834 ft 471 kts 105°
2026-05-05 22:26 51.81810 7.99397 32829 ft 470 kts 106°
2026-05-05 22:26 51.80441 8.09721 32829 ft 470 kts 107°
2026-05-05 22:27 51.79028 8.20015 32825 ft 470 kts 107°
2026-05-05 22:27 51.77599 8.30301 32817 ft 469 kts 107°
2026-05-05 22:28 51.76162 8.40591 32823 ft 470 kts 107°
2026-05-05 22:28 51.74718 8.50882 32807 ft 470 kts 107°
2026-05-05 22:29 51.73275 8.61095 32803 ft 470 kts 107°
2026-05-05 22:29 51.71816 8.71349 32804 ft 468 kts 107°
2026-05-05 22:30 51.70359 8.81534 32804 ft 465 kts 107°
2026-05-05 22:30 51.68898 8.91674 32807 ft 464 kts 107°
2026-05-05 22:31 51.67427 9.01812 32810 ft 464 kts 107°
2026-05-05 22:31 51.65947 9.11937 32809 ft 464 kts 107°
2026-05-05 22:32 51.64473 9.21964 32810 ft 464 kts 107°
2026-05-05 22:32 51.62975 9.32082 32809 ft 464 kts 107°
2026-05-05 22:33 51.61471 9.42181 32803 ft 464 kts 107°
2026-05-05 22:33 51.59960 9.52274 32803 ft 464 kts 107°
2026-05-05 22:34 51.58449 9.62288 32802 ft 464 kts 107°
2026-05-05 22:34 51.56917 9.72373 32804 ft 464 kts 107°
2026-05-05 22:35 51.55381 9.82424 32802 ft 463 kts 107°
2026-05-05 22:35 51.53840 9.92458 32806 ft 463 kts 107°
2026-05-05 22:36 51.52291 10.02483 32808 ft 463 kts 107°
2026-05-05 22:36 51.50732 10.12505 32807 ft 463 kts 107°
2026-05-05 22:37 51.49164 10.22518 32806 ft 463 kts 107°
2026-05-05 22:37 51.47587 10.32535 32804 ft 463 kts 107°
2026-05-05 22:38 51.46003 10.42526 32805 ft 462 kts 107°
2026-05-05 22:38 51.44412 10.52520 32803 ft 463 kts 107°
2026-05-05 22:39 51.42833 10.62511 32791 ft 462 kts 107°
2026-05-05 22:39 51.41246 10.72508 32802 ft 463 kts 107°
2026-05-05 22:40 51.39658 10.82448 32799 ft 463 kts 107°
2026-05-05 22:40 51.38053 10.92436 32797 ft 463 kts 107°
2026-05-05 22:41 51.36437 11.02423 32796 ft 463 kts 108°
2026-05-05 22:41 51.34813 11.12399 32795 ft 464 kts 108°
2026-05-05 22:42 51.33177 11.22385 32790 ft 465 kts 108°
2026-05-05 22:42 51.31532 11.32377 32790 ft 464 kts 108°
2026-05-05 22:43 51.29880 11.42355 32790 ft 464 kts 108°
2026-05-05 22:43 51.28219 11.52325 32766 ft 464 kts 108°
2026-05-05 22:44 51.26545 11.62311 32788 ft 466 kts 108°
2026-05-05 22:44 51.24858 11.72319 32782 ft 467 kts 108°
2026-05-05 22:45 51.23161 11.82333 32784 ft 467 kts 108°
2026-05-05 22:45 51.21469 11.92256 32776 ft 466 kts 108°
2026-05-05 22:46 51.19755 12.02246 32773 ft 469 kts 108°
2026-05-05 22:46 51.18021 12.12293 32771 ft 471 kts 108°
2026-05-05 22:47 51.16278 12.22348 32767 ft 470 kts 108°
2026-05-05 22:47 51.14530 12.32373 32769 ft 470 kts 108°
2026-05-05 22:48 51.12771 12.42397 32755 ft 470 kts 109°
2026-05-05 22:48 51.11000 12.52434 32772 ft 472 kts 109°
2026-05-05 22:49 51.09213 12.62508 32773 ft 473 kts 109°
2026-05-05 22:49 51.07417 12.72576 32771 ft 473 kts 109°
2026-05-05 22:50 51.05613 12.82632 32771 ft 473 kts 109°
2026-05-05 22:50 51.04105 12.90992 32765 ft 474 kts 109°
2026-05-05 22:51 51.02272 13.01098 32763 ft 477 kts 109°
2026-05-05 22:51 51.00426 13.11226 32763 ft 477 kts 109°
2026-05-05 22:52 50.98269 13.22989 32766 ft 477 kts 109°
2026-05-05 22:52 50.96708 13.31457 32746 ft 477 kts 109°
2026-05-05 22:53 50.94826 13.41612 32775 ft 483 kts 109°
2026-05-05 22:53 50.92921 13.51836 32784 ft 484 kts 109°
2026-05-05 22:54 50.91006 13.62064 32787 ft 484 kts 109°
2026-05-05 22:54 50.89082 13.72285 32789 ft 484 kts 109°
2026-05-05 22:55 50.87150 13.82488 32790 ft 484 kts 109°
2026-05-05 22:55 50.85209 13.92679 32789 ft 483 kts 109°
2026-05-05 22:56 50.82707 14.02460 32785 ft 478 kts 122°
2026-05-05 22:56 50.79334 14.11288 32782 ft 477 kts 125°
2026-05-05 22:57 50.75720 14.20160 32768 ft 478 kts 126°
2026-05-05 22:57 50.72123 14.28909 32798 ft 480 kts 126°
2026-05-05 22:58 50.68497 14.37755 32798 ft 480 kts 126°
2026-05-05 22:58 50.64870 14.46609 32778 ft 481 kts 126°
2026-05-05 22:59 50.61233 14.55461 32803 ft 482 kts 126°
2026-05-05 22:59 50.57579 14.64325 32789 ft 484 kts 126°
2026-05-05 23:00 50.52055 14.77666 32781 ft 486 kts 127°
2026-05-05 23:00 50.48363 14.86549 32766 ft 485 kts 127°
2026-05-05 23:01 50.44676 14.95429 32778 ft 485 kts 127°
2026-05-05 23:01 50.40978 15.04311 32761 ft 487 kts 127°
2026-05-05 23:02 50.37256 15.13220 32756 ft 488 kts 127°
2026-05-05 23:02 50.33558 15.22042 32766 ft 488 kts 127°
2026-05-05 23:03 50.29822 15.30926 32758 ft 489 kts 127°
2026-05-05 23:03 50.26079 15.39789 32753 ft 490 kts 127°
2026-05-05 23:04 50.22288 15.48742 32751 ft 491 kts 127°
2026-05-05 23:04 50.18532 15.57583 32750 ft 491 kts 127°
2026-05-05 23:05 50.14747 15.66463 32748 ft 491 kts 127°